Weather History for Patuxent River, MD

Change the Weather History Date:

Friday, May 17, 2013

  Actual Average Record
Temperature  
Mean Temperature 70 °F -  
Max Temperature 80 °F 72 °F 86 °F (1982)
Min Temperature 60 °F 54 °F 33 °F (2005)
Cooling Degree Days 4    
Growing Degree Days 20 (Base 50)    
Moisture  
Dew Point 51 °F    
Average Humidity 55    
Maximum Humidity 90    
Minimum Humidity 23    
Precipitation  
Precipitation 0.00 in - - ()
Sea Level Pressure  
Sea Level Pressure 30.06 in    
Wind  
Wind Speed 6 mph (SE)    
Max Wind Speed 10 mph    
Max Gust Speed -    
Visibility 10 miles    
Events      
Averages and records for this station are not official NWS values.
T = Trace of Precipitation, MM = Missing Value Source: NWS Daily Summary

Daily Weather History Graph

Daily Weather History Graph

Search for Another Location

Airport:

Trip Planner

Search our weather history database for the weather conditions in past years. The results will help you decide how hot, cold, wet, or windy it might be!

Date:

Astronomy

May. 17, 2013 Rise Set
Actual Time 5:52 AM EDT 8:11 PM EDT
Civil Twilight 5:22 AM EDT 8:41 PM EDT
Nautical Twilight 4:46 AM EDT 9:18 PM EDT
Astronomical Twilight 4:05 AM EDT 9:59 PM EDT
Moon 12:20 PM EDT (5/17) 1:05 AM EDT (5/17)
Length of Visible Light 15h 18m
Length of Day
14h 19m
Waxing Crescent, 45% of the Moon is Illuminated
May 17
Waxing Crescent
May 18
First Quarter
May 25
Full
May 31
Last Quarter
Jun 8
New

Hourly Weather History & Observations

Time (EDT) Temp. Dew Point Humidity Pressure Visibility Wind Dir Wind Speed Gust Speed Precip Events Conditions
12:52 AM 66.0 °F 60.1 °F 81% 29.92 in 10.0 mi WSW 6.9 mph - N/A   Clear
1:52 AM 66.9 °F 60.1 °F 79% 29.91 in 10.0 mi West 6.9 mph - N/A   Clear
2:52 AM 66.0 °F 57.9 °F 75% 29.92 in 10.0 mi West 4.6 mph - N/A   Clear
3:52 AM 64.9 °F 57.9 °F 78% 29.95 in 10.0 mi Calm Calm - N/A   Clear
4:52 AM 63.0 °F 57.0 °F 81% 29.97 in 10.0 mi WSW 3.5 mph - N/A   Mostly Cloudy
5:52 AM 60.1 °F 57.0 °F 90% 30.01 in 10.0 mi SW 3.5 mph - N/A   Scattered Clouds
6:52 AM 61.0 °F 57.0 °F 87% 30.04 in 9.0 mi WSW 3.5 mph - N/A   Scattered Clouds
7:52 AM 68.0 °F 59.0 °F 73% 30.06 in 10.0 mi NW 4.6 mph - N/A   Scattered Clouds
8:52 AM 72.0 °F 55.0 °F 55% 30.08 in 10.0 mi North 5.8 mph - N/A   Scattered Clouds
9:52 AM 73.9 °F 51.1 °F 45% 30.09 in 9.0 mi North 5.8 mph - N/A   Scattered Clouds
10:52 AM 75.9 °F 45.0 °F 33% 30.10 in 10.0 mi North 8.1 mph - N/A   Partly Cloudy
11:52 AM 77.0 °F 41.0 °F 28% 30.11 in 10.0 mi NNW 8.1 mph - N/A   Partly Cloudy
12:52 PM 78.1 °F 39.9 °F 25% 30.11 in 10.0 mi North 8.1 mph - N/A   Partly Cloudy
1:52 PM 79.0 °F 37.9 °F 23% 30.10 in 10.0 mi Variable 5.8 mph - N/A   Partly Cloudy
2:52 PM 79.0 °F 37.9 °F 23% 30.09 in 10.0 mi East 5.8 mph - N/A   Partly Cloudy
3:52 PM 78.1 °F 39.9 °F 25% 30.08 in 10.0 mi East 5.8 mph - N/A   Partly Cloudy
4:52 PM 75.0 °F 44.1 °F 33% 30.08 in 10.0 mi ESE 6.9 mph - N/A   Mostly Cloudy
5:52 PM 75.9 °F 45.0 °F 33% 30.09 in 10.0 mi SE 8.1 mph - N/A   Mostly Cloudy
6:52 PM 73.0 °F 53.1 °F 49% 30.08 in 10.0 mi SE 5.8 mph - N/A   Mostly Cloudy
7:52 PM 71.1 °F 51.1 °F 49% 30.09 in 10.0 mi SE 8.1 mph - N/A   Mostly Cloudy
8:52 PM 68.0 °F 51.1 °F 55% 30.11 in 10.0 mi SE 6.9 mph - N/A   Mostly Cloudy
9:52 PM 68.0 °F 55.0 °F 63% 30.14 in 10.0 mi SE 10.4 mph - N/A   Mostly Cloudy
10:52 PM 66.0 °F 55.0 °F 68% 30.15 in 10.0 mi SE 9.2 mph - N/A   Mostly Cloudy
11:52 PM 64.9 °F 53.1 °F 65% 30.15 in 10.0 mi SE 6.9 mph - N/A   Scattered Clouds